Location: Codford Saint Peter
(51.1597°N, 2.0531°W)
Time: 03:57:47
(UTC+00:00)

MOS 1 Rocket - Pass Details

Date: 18 September 2020
Orbit: 613 x 831 km, 97.4° (Epoch: 18 October)

Event Time Altitude Azimuth Distance (km) Brightness Sun altitude
Rises 18:56:31 0° 17° (NNE) 3,046 6.6 -7.3°
Reaches altitude 10° 18:58:54 10° 24° (NNE) 2,094 5.7 -7.7°
Maximum altitude 19:03:15 44° 97° (E) 887 3.4 -8.4°
Drops below altitude 10° 19:07:24 10° 170° (S) 1,993 5.4 -9.0°
Sets 19:09:37 0° 177° (S) 2,881 6.3 -9.3°
